| time (UTC) | temp C | wind direction | speed KPH | gust KPH | rain 1hr cm | rain 24hr cm | rain mn cm | humidity % | barometer mb |
| 20260510190007 | 13 | 299 | 9.7 | 27.4 | 0.00 | 0.00 | 0.00 | 41 | 1017.3 |
| 20260510183007 | 13 | 259 | 9.7 | 17.7 | 0.00 | 0.00 | 0.00 | 43 | 1016.9 |
| 20260510181505 | 13 | 257 | 9.7 | 17.7 | 0.00 | 0.05 | 0.00 | 41 | 1016.9 |
| 20260510180008 | 13 | 289 | 9.7 | 20.9 | 0.00 | 0.13 | 0.00 | 41 | 1016.8 |
| 20260510174505 | 13 | 262 | 8.0 | 17.7 | 0.00 | 0.13 | 0.00 | 38 | 1016.8 |
| 20260510173007 | 13 | 254 | 6.4 | 20.9 | 0.00 | 0.13 | 0.00 | 45 | 1016.9 |
| 20260510170008 | 12 | 298 | 11.3 | 27.4 | 0.00 | 0.13 | 0.00 | 45 | 1017.1 |
| 20260510164505 | 12 | 290 | 9.7 | 22.5 | 0.00 | 0.13 | 0.00 | 46 | 1017.1 |
| 20260510163007 | 12 | 274 | 8.0 | 20.9 | 0.00 | 0.13 | 0.00 | 47 | 1017.0 |
| 20260510161505 | 12 | 256 | 8.0 | 20.9 | 0.00 | 0.13 | 0.00 | 47 | 1016.9 |
| 20260510160010 | 11 | 262 | 6.4 | 20.9 | 0.00 | 0.13 | 0.00 | 49 | 1016.9 |
| 20260510154505 | 11 | 280 | 8.0 | 19.3 | 0.00 | 0.13 | 0.00 | 48 | 1016.9 |
| 20260510153006 | 11 | 265 | 8.0 | 19.3 | 0.00 | 0.13 | 0.00 | 51 | 1016.7 |
| 20260510151505 | 11 | 276 | 8.0 | 17.7 | 0.00 | 0.13 | 0.00 | 50 | 1016.6 |
| 20260510150010 | 10 | 283 | 8.0 | 17.7 | 0.00 | 0.13 | 0.00 | 53 | 1016.5 |
| 20260510144505 | 10 | 270 | 8.0 | 19.3 | 0.00 | 0.13 | 0.00 | 55 | 1016.4 |
| 20260510143007 | 10 | 274 | 9.7 | 19.3 | 0.00 | 0.13 | 0.00 | 57 | 1016.3 |
| 20260510141504 | 10 | 304 | 11.3 | 24.1 | 0.00 | 0.20 | 0.00 | 56 | 1016.1 |
| 20260510140008 | 10 | 281 | 6.4 | 17.7 | 0.00 | 0.20 | 0.00 | 57 | 1016.1 |
| 20260510131504 | 8 | 302 | 6.4 | 14.5 | 0.00 | 0.20 | 0.00 | 58 | 1015.6 |
| 20260510130008 | 8 | 293 | 4.8 | 14.5 | 0.00 | 0.20 | 0.00 | 61 | 1015.6 |
| 20260510124504 | 7 | 296 | 4.8 | 11.3 | 0.00 | 0.20 | 0.00 | 66 | 1015.4 |
| 20260510123008 | 7 | 300 | 1.6 | 11.3 | 0.00 | 0.20 | 0.00 | 71 | 1015.2 |
| 20260510121504 | 6 | 288 | 3.2 | 11.3 | 0.00 | 0.20 | 0.00 | 73 | 1015.0 |
| 20260510120007 | 6 | 317 | 1.6 | 6.4 | 0.00 | 0.20 | 0.00 | 78 | 1015.1 |
| 20260510113007 | 5 | 318 | 0.0 | 3.2 | 0.00 | 0.20 | 0.00 | 82 | 1014.8 |
| 20260510111505 | 4 | 0 | 0.0 | 0.0 | 0.00 | 0.20 | 0.00 | 83 | 1014.5 |
| 20260510104505 | 3 | 0 | 0.0 | 0.0 | 0.00 | 0.20 | 0.00 | 84 | 1014.1 |
| 20260510103008 | 3 | 0 | 0.0 | 0.0 | 0.00 | 0.20 | 0.00 | 84 | 1013.9 |
| 20260510101504 | 3 | 318 | 0.0 | 3.2 | 0.00 | 0.20 | 0.00 | 84 | 1013.6 |
| 20260510094505 | 3 | 319 | 0.0 | 4.8 | 0.00 | 0.20 | 0.00 | 84 | 1013.3 |
| 20260510093007 | 3 | 319 | 3.2 | 4.8 | 0.00 | 0.20 | 0.00 | 84 | 1012.9 |
| 20260510091505 | 3 | 15 | 1.6 | 6.4 | 0.00 | 0.20 | 0.00 | 85 | 1012.8 |
| 20260510084505 | 3 | 31 | 0.0 | 1.6 | 0.00 | 0.23 | 0.00 | 85 | 1012.2 |
| 20260510083008 | 3 | 31 | 0.0 | 3.2 | 0.00 | 0.23 | 0.00 | 85 | 1011.9 |
| 20260510081505 | 3 | 0 | 0.0 | 0.0 | 0.00 | 0.23 | 0.00 | 85 | 1011.8 |
| 20260510080007 | 3 | 0 | 0.0 | 0.0 | 0.00 | 0.23 | 0.00 | 85 | 1011.6 |
| 20260510074505 | 3 | 0 | 0.0 | 0.0 | 0.00 | 0.23 | 0.00 | 85 | 1011.5 |
| 20260510073007 | 3 | 0 | 0.0 | 0.0 | 0.00 | 0.23 | 0.00 | 85 | 1011.3 |
| 20260510071505 | 4 | 0 | 0.0 | 0.0 | 0.00 | 0.23 | 0.00 | 85 | 1011.2 |
| 20260510070008 | 4 | 0 | 0.0 | 0.0 | 0.00 | 0.23 | 0.00 | 84 | 1010.9 |
| 20260510064505 | 5 | 0 | 0.0 | 0.0 | 0.00 | 0.23 | 0.00 | 82 | 1010.8 |
| 20260510063007 | 5 | 0 | 0.0 | 0.0 | 0.00 | 0.23 | 0.00 | 81 | 1010.6 |
| 20260510061505 | 6 | 31 | 0.0 | 3.2 | 0.00 | 0.23 | 0.00 | 79 | 1010.4 |
| 20260510060008 | 6 | 32 | 1.6 | 4.8 | 0.00 | 0.23 | 0.00 | 78 | 1010.4 |
| 20260510054505 | 6 | 33 | 1.6 | 6.4 | 0.00 | 0.23 | 0.00 | 77 | 1010.3 |
| 20260510053008 | 7 | 30 | 3.2 | 12.9 | 0.00 | 0.23 | 0.00 | 75 | 1010.1 |
| 20260510051504 | 7 | 30 | 6.4 | 9.7 | 0.00 | 0.23 | 0.00 | 73 | 1010.0 |
| 20260510050007 | 7 | 350 | 1.6 | 14.5 | 0.00 | 0.23 | 0.00 | 72 | 1009.6 |
| 20260510044504 | 8 | 0 | 0.0 | 0.0 | 0.00 | 0.23 | 0.00 | 69 | 1009.2 |
| 20260510043011 | 8 | 0 | 0.0 | 0.0 | 0.00 | 0.23 | 0.00 | 68 | 1008.9 |
| 20260510041505 | 8 | 0 | 0.0 | 0.0 | 0.00 | 0.23 | 0.00 | 67 | 1008.7 |
| 20260510040030 | 10 | 297 | 3.2 | 6.4 | 0.00 | 0.23 | 0.00 | 66 | 1008.4 |
| 20260510033007 | 10 | 299 | 4.8 | 12.9 | 0.00 | 0.23 | 0.23 | 63 | 1008.1 |
| 20260510031505 | 11 | 300 | 6.4 | 16.1 | 0.00 | 0.23 | 0.23 | 63 | 1008.0 |
| 20260510030007 | 11 | 300 | 4.8 | 12.9 | 0.00 | 0.23 | 0.23 | 64 | 1007.9 |
| 20260510023007 | 11 | 304 | 4.8 | 11.3 | 0.00 | 0.23 | 0.23 | 64 | 1007.5 |
| 20260510020008 | 12 | 308 | 8.0 | 16.1 | 0.00 | 0.23 | 0.23 | 63 | 1006.6 |
| 20260510014505 | 12 | 313 | 12.9 | 17.7 | 0.00 | 0.23 | 0.23 | 61 | 1006.3 |
| 20260510013008 | 12 | 309 | 12.9 | 24.1 | 0.00 | 0.23 | 0.23 | 62 | 1005.9 |
| 20260510011505 | 13 | 309 | 12.9 | 24.1 | 0.00 | 0.23 | 0.23 | 61 | 1005.6 |
| 20260510004505 | 14 | 309 | 14.5 | 27.4 | 0.00 | 0.23 | 0.23 | 56 | 1004.6 |
| 20260510003008 | 16 | 303 | 8.0 | 27.4 | 0.00 | 0.23 | 0.23 | 51 | 1004.1 |
| 20260510001505 | 16 | 273 | 6.4 | 16.1 | 0.00 | 0.23 | 0.23 | 49 | 1003.7 |
| 20260510000007 | 16 | 266 | 9.7 | 19.3 | 0.00 | 0.23 | 0.23 | 47 | 1003.2 |
| 20260509234505 | 17 | 257 | 11.3 | 24.1 | 0.00 | 0.23 | 0.23 | 44 | 1003.1 |
| 20260509231505 | 18 | 248 | 14.5 | 32.2 | 0.00 | 0.23 | 0.23 | 42 | 1002.7 |
| 20260509230008 | 18 | 244 | 17.7 | 27.4 | 0.00 | 0.23 | 0.23 | 43 | 1002.2 |
| 20260509224504 | 18 | 246 | 19.3 | 37.0 | 0.00 | 0.23 | 0.23 | 42 | 1002.0 |
| 20260509223008 | 18 | 248 | 17.7 | 37.0 | 0.00 | 0.23 | 0.23 | 43 | 1001.6 |
| 20260509221504 | 18 | 245 | 17.7 | 30.6 | 0.00 | 0.23 | 0.23 | 45 | 1001.3 |
| 20260509220008 | 18 | 237 | 16.1 | 27.4 | 0.00 | 0.23 | 0.23 | 47 | 1001.0 |
| 20260509213008 | 18 | 247 | 16.1 | 40.2 | 0.00 | 0.23 | 0.23 | 48 | 1000.8 |
| 20260509211505 | 19 | 237 | 16.1 | 25.7 | 0.00 | 0.23 | 0.23 | 50 | 1000.9 |
| 20260509210007 | 18 | 234 | 16.1 | 33.8 | 0.00 | 0.23 | 0.23 | 49 | 1000.7 |
| 20260509204505 | 18 | 229 | 16.1 | 30.6 | 0.00 | 0.23 | 0.23 | 49 | 1000.6 |
| 20260509203008 | 18 | 231 | 19.3 | 53.1 | 0.00 | 0.23 | 0.23 | 50 | 1000.7 |
| 20260509201505 | 18 | 230 | 16.1 | 37.0 | 0.00 | 0.23 | 0.23 | 50 | 1001.0 |
| 20260509200008 | 18 | 236 | 17.7 | 41.8 | 0.00 | 0.23 | 0.23 | 51 | 1001.1 |
| 20260509191505 | 18 | 256 | 11.3 | 24.1 | 0.05 | 0.23 | 0.23 | 64 | 1001.3 |